Luray, VA

4:26 AM EDT on September 30, 2016 (GMT -0400)
Luray Caverns AP, Luray, VA

Weather History for KLUA - January, 2014

Change the Weather History Date:

Saturday, January 25, 2014

  Actual Average (KCHO) Record (KCHO)
Temperature  
Mean Temperature 30 °F 36 °F  
Max Temperature 37 °F 45 °F 77 °F (1967)
Min Temperature 24 °F 26 °F 4 °F (1935)
Degree Days  
Heating Degree Days 34 30  
Month to date heating degree days 750  
Since 1 July heating degree days 2486  
Cooling Degree Days 0 0  
Month to date cooling degree days 0  
Year to date cooling degree days 0  
Moisture  
Dew Point 15 °F    
Average Humidity 53    
Maximum Humidity 100    
Minimum Humidity 37    
Precipitation  
Precipitation 0.00 in 0.10 in 1.67 in (2010)
Month to date precipitation 2.26  
Year to date precipitation 2.26  
Sea Level Pressure  
Sea Level Pressure 29.62 in    
Wind  
Wind Speed 15 mph (SW)    
Max Wind Speed 22 mph    
Max Gust Speed 38 mph    
Visibility 9 miles    
Events Snow    
T = Trace of Precipitation, MM = Missing Value Source: NWS Daily Summary

Daily Weather History Graph

Daily Weather History Graph

Search for Another Location

Airport or City:

Trip Planner

Search our weather history database for the weather conditions in past years. The results will help you decide how hot, cold, wet, or windy it might be!

Date:

Astronomy

Jan. 25, 2014 Rise Set
Actual Time 7:25 AM EST 5:27 PM EST
Civil Twilight 6:56 AM EST 5:56 PM EST
Nautical Twilight 6:24 AM EST 6:28 PM EST
Astronomical Twilight 5:53 AM EST 6:59 PM EST
Moon 1:55 AM EST (1/25) 12:26 PM EST (1/25)
Length of Visible Light 10h 59m
Length of Day
10h 02m
Waning Crescent, 34% of the Moon is Illuminated
Jan 25
Waning Crescent
Jan 30
New
Feb 6
First Quarter
Feb 14
Full
Feb 22
Last Quarter

Hourly Weather History & Observations

Time (EST) Temp. Windchill Dew Point Humidity Pressure Visibility Wind Dir Wind Speed Gust Speed Precip Events Conditions
12:15 AM 24.8 °F 11.5 °F 5.0 °F 43% 29.97 in 10.0 mi SSW 17.3 mph 26.5 mph N/A   Clear
12:35 AM 26.6 °F 14.7 °F 5.0 °F 40% 29.95 in 10.0 mi SW 15.0 mph 21.9 mph N/A   Clear
12:55 AM 26.6 °F 13.1 °F 5.0 °F 40% 29.93 in 10.0 mi SW 19.6 mph 27.6 mph N/A   Clear
1:15 AM 26.6 °F 13.8 °F 5.0 °F 40% 29.92 in 10.0 mi SSW 17.3 mph 24.2 mph N/A   Clear
1:35 AM 26.6 °F 12.7 °F 5.0 °F 40% 29.91 in 10.0 mi SSW 20.7 mph 29.9 mph N/A   Clear
1:55 AM 26.6 °F 12.4 °F 5.0 °F 40% 29.89 in 10.0 mi SSW 21.9 mph 28.8 mph N/A   Clear
2:15 AM 26.6 °F 13.4 °F 5.0 °F 40% 29.88 in 10.0 mi SSW 18.4 mph 26.5 mph N/A   Clear
2:35 AM 26.6 °F 13.4 °F 5.0 °F 40% 29.86 in 10.0 mi SSW 18.4 mph 29.9 mph N/A   Clear
2:55 AM 26.6 °F 13.1 °F 5.0 °F 40% 29.85 in 10.0 mi SSW 19.6 mph 27.6 mph N/A   Clear
3:15 AM 26.6 °F 15.2 °F 5.0 °F 40% 29.84 in 10.0 mi SSW 13.8 mph 29.9 mph N/A   Clear
3:35 AM 26.6 °F 15.2 °F 5.0 °F 40% 29.82 in 10.0 mi SSW 13.8 mph 21.9 mph N/A   Clear
3:55 AM 28.4 °F 18.0 °F 5.0 °F 37% 29.81 in 10.0 mi SSW 12.7 mph - N/A   Clear
4:15 AM 28.4 °F 17.0 °F 5.0 °F 37% 29.79 in 10.0 mi SW 15.0 mph 19.6 mph N/A   Clear
4:35 AM 28.4 °F 17.0 °F 5.0 °F 37% 29.78 in 10.0 mi SW 15.0 mph - N/A   Clear
4:55 AM 28.4 °F 17.5 °F 6.8 °F 40% 29.76 in 10.0 mi SW 13.8 mph 21.9 mph N/A   Clear
5:15 AM 28.4 °F 17.5 °F 6.8 °F 40% 29.74 in 10.0 mi SW 13.8 mph 19.6 mph N/A   Clear
5:35 AM 28.4 °F 18.5 °F 6.8 °F 40% 29.74 in 10.0 mi SW 11.5 mph 17.3 mph N/A   Clear
5:55 AM 28.4 °F 19.1 °F 6.8 °F 40% 29.73 in 10.0 mi SW 10.4 mph 19.6 mph N/A   Clear
6:15 AM 28.4 °F 18.0 °F 6.8 °F 40% 29.72 in 10.0 mi SW 12.7 mph - N/A   Clear
6:35 AM 28.4 °F 18.0 °F 6.8 °F 40% 29.71 in 10.0 mi SW 12.7 mph 19.6 mph N/A   Mostly Cloudy
6:55 AM 30.2 °F 18.5 °F 6.8 °F 37% 29.69 in 10.0 mi SW 17.3 mph 23.0 mph N/A   Overcast
7:15 AM 30.2 °F 18.5 °F 6.8 °F 37% 29.67 in 10.0 mi SSW 17.3 mph 25.3 mph N/A   Overcast
7:35 AM 30.2 °F 18.5 °F 6.8 °F 37% 29.66 in 10.0 mi SW 17.3 mph 27.6 mph N/A   Overcast
7:55 AM 32.0 °F 20.8 °F 8.6 °F 38% 29.65 in 10.0 mi SW 17.3 mph 27.6 mph N/A   Overcast
8:15 AM 32.0 °F 21.6 °F 8.6 °F 38% 29.64 in 10.0 mi SSW 15.0 mph 26.5 mph N/A   Overcast
8:35 AM 32.0 °F 21.6 °F 8.6 °F 38% 29.62 in 10.0 mi SW 15.0 mph 24.2 mph N/A   Mostly Cloudy
8:55 AM 32.0 °F 20.8 °F 8.6 °F 38% 29.61 in 10.0 mi SSW 17.3 mph 24.2 mph N/A   Scattered Clouds
9:15 AM 32.0 °F 22.1 °F 8.6 °F 38% 29.61 in 10.0 mi SW 13.8 mph 26.5 mph N/A   Scattered Clouds
9:35 AM 32.0 °F 20.5 °F 10.4 °F 41% 29.60 in 10.0 mi SSW 18.4 mph 24.2 mph N/A   Clear
9:55 AM 32.0 °F 21.6 °F 12.2 °F 44% 29.59 in 10.0 mi SSW 15.0 mph 26.5 mph N/A   Clear
10:15 AM 33.8 °F 22.8 °F 12.2 °F 41% 29.59 in 10.0 mi SW 18.4 mph 28.8 mph N/A   Clear
10:35 AM 33.8 °F 22.8 °F 12.2 °F 41% 29.58 in 10.0 mi SSW 18.4 mph 26.5 mph N/A   Clear
10:55 AM 33.8 °F 24.3 °F 12.2 °F 41% 29.56 in 10.0 mi SSW 13.8 mph 21.9 mph N/A   Clear
11:15 AM 33.8 °F 24.3 °F 14.0 °F 44% 29.55 in 10.0 mi SSW 13.8 mph - N/A   Clear
11:35 AM 35.6 °F 25.2 °F 14.0 °F 41% 29.54 in 10.0 mi SW 18.4 mph 26.5 mph N/A   Clear
11:55 AM 35.6 °F 25.5 °F 17.6 °F 48% 29.52 in 10.0 mi SSW 17.3 mph 27.6 mph N/A   Scattered Clouds
12:15 PM 35.6 °F 25.9 °F 19.4 °F 52% 29.49 in 10.0 mi SSW 16.1 mph 24.2 mph N/A   Mostly Cloudy
12:35 PM 37.4 °F 28.5 °F 21.2 °F 52% 29.48 in 10.0 mi SSW 15.0 mph 21.9 mph N/A   Overcast
12:55 PM 35.6 °F 26.6 °F 21.2 °F 56% 29.47 in 10.0 mi SSW 13.8 mph 25.3 mph N/A   Overcast
1:15 PM 35.6 °F 27.1 °F 23.0 °F 60% 29.45 in 10.0 mi SSW 12.7 mph 19.6 mph N/A   Overcast
1:35 PM 35.6 °F 26.2 °F 23.0 °F 60% 29.44 in 10.0 mi SSW 15.0 mph 20.7 mph N/A   Overcast
1:55 PM 35.6 °F 26.6 °F 24.8 °F 65% 29.43 in 10.0 mi SSW 13.8 mph 18.4 mph N/A   Overcast
2:15 PM 35.6 °F 27.1 °F 24.8 °F 65% 29.42 in 10.0 mi South 12.7 mph 19.6 mph N/A   Overcast
2:35 PM 35.6 °F 27.5 °F 26.6 °F 70% 29.41 in 10.0 mi South 11.5 mph - N/A   Overcast
2:55 PM 37.4 °F 29.3 °F 26.6 °F 65% 29.41 in 10.0 mi SSW 12.7 mph 17.3 mph N/A   Overcast
3:15 PM 37.4 °F 30.3 °F 26.6 °F 65% 29.43 in 10.0 mi SW 10.4 mph - N/A   Overcast
3:35 PM 35.6 °F 28.0 °F 26.6 °F 70% 29.43 in 10.0 mi SSW 10.4 mph 18.4 mph N/A   Overcast
3:55 PM 35.6 °F 28.0 °F 26.6 °F 70% 29.44 in 10.0 mi SSW 10.4 mph 17.3 mph N/A   Overcast
4:15 PM 37.4 °F 30.3 °F 26.6 °F 65% 29.44 in 10.0 mi SW 10.4 mph 23.0 mph N/A   Overcast
4:35 PM 37.4 °F 29.3 °F 26.6 °F 65% 29.44 in 10.0 mi SW 12.7 mph 18.4 mph N/A   Overcast
4:55 PM 35.6 °F 28.0 °F 26.6 °F 70% 29.45 in 10.0 mi SW 10.4 mph 18.4 mph N/A   Overcast
5:15 PM 35.6 °F 27.1 °F 26.6 °F 70% 29.45 in 10.0 mi SSW 12.7 mph - N/A   Overcast
5:35 PM 35.6 °F 27.1 °F 26.6 °F 70% 29.46 in 10.0 mi SSW 12.7 mph 18.4 mph N/A   Overcast
5:55 PM 35.6 °F 27.5 °F 26.6 °F 70% 29.48 in 10.0 mi SW 11.5 mph 16.1 mph N/A   Overcast
6:15 PM 33.8 °F 25.3 °F 26.6 °F 75% 29.49 in 10.0 mi SW 11.5 mph - N/A   Overcast
6:35 PM 33.8 °F 25.3 °F 23.0 °F 65% 29.49 in 10.0 mi WSW 11.5 mph 16.1 mph N/A   Mostly Cloudy
6:55 PM 33.8 °F 25.3 °F 21.2 °F 60% 29.50 in 10.0 mi WSW 11.5 mph 23.0 mph N/A   Clear
7:15 PM 33.8 °F 25.8 °F 19.4 °F 56% 29.50 in 10.0 mi WSW 10.4 mph - N/A   Mostly Cloudy
7:35 PM 33.8 °F 25.8 °F 19.4 °F 56% 29.50 in 10.0 mi SW 10.4 mph - N/A   Overcast
7:55 PM 33.8 °F 23.5 °F 24.8 °F 70% 29.52 in 7.0 mi SW 16.1 mph 21.9 mph N/A Snow Light Snow
8:15 PM 32.0 °F 25.6 °F 28.4 °F 87% 29.53 in 5.0 mi West 6.9 mph - N/A Snow Light Snow
8:35 PM 32.0 °F 22.1 °F 28.4 °F 87% 29.54 in 7.0 mi WSW 13.8 mph - N/A Snow Light Snow
8:55 PM 32.0 °F 23.6 °F 30.2 °F 93% 29.55 in 1.0 mi SW 10.4 mph 19.6 mph N/A Snow Light Snow
9:15 PM 32.0 °F 25.6 °F 32.0 °F 100% 29.56 in 2.0 mi SW 6.9 mph - N/A Snow Light Snow
10:15 PM 32.0 °F 21.2 °F 23.0 °F 69% 29.61 in 10.0 mi West 16.1 mph 19.6 mph N/A   Overcast
10:35 PM 30.2 °F 19.8 °F 24.8 °F 80% 29.62 in 1.0 mi West 13.8 mph 29.9 mph N/A Snow Light Snow
10:55 PM 30.2 °F 17.4 °F 19.4 °F 64% 29.63 in 0.8 mi West 20.7 mph 38.0 mph N/A Snow Light Snow
11:15 PM 30.2 °F 19.8 °F 14.0 °F 51% 29.64 in 10.0 mi West 13.8 mph 24.2 mph N/A   Clear
11:35 PM 28.4 °F 18.0 °F 10.4 °F 47% 29.66 in 10.0 mi West 12.7 mph 18.4 mph N/A   Clear
11:55 PM 28.4 °F 18.5 °F 10.4 °F 47% 29.69 in 10.0 mi WSW 11.5 mph 18.4 mph N/A   Scattered Clouds